TimeEST,TemperatureF,Dew PointF,Humidity,Sea Level PressureIn,VisibilityMPH,Wind Direction,Wind SpeedMPH,Gust SpeedMPH,PrecipitationIn,Events,Conditions,WindDirDegrees,DateUTC
12:36 AM,46.4,44.6,93,30.26,1.8,North,4.6,-,0.01,,Overcast,350,2011-11-22 05:36:00
12:53 AM,46.0,44.1,93,30.26,2.5,North,3.5,-,0.01,,Overcast,360,2011-11-22 05:53:00
1:31 AM,46.4,44.6,93,30.24,1.5,Calm,Calm,-,N/A,,Overcast,0,2011-11-22 06:31:00
1:53 AM,46.0,45.0,96,30.25,1.5,Calm,Calm,-,N/A,,Overcast,0,2011-11-22 06:53:00
2:53 AM,46.0,44.1,93,30.27,1.8,North,6.9,-,N/A,,Overcast,360,2011-11-22 07:53:00
3:53 AM,46.0,44.1,93,30.25,1.8,NNE,6.9,-,0.01,Rain,Light Rain,20,2011-11-22 08:53:00
4:53 AM,46.0,44.1,93,30.25,1.2,NNE,5.8,-,N/A,,Overcast,20,2011-11-22 09:53:00
5:53 AM,46.0,45.0,96,30.25,1.0,North,3.5,-,N/A,,Overcast,10,2011-11-22 10:53:00
6:53 AM,46.0,45.0,96,30.26,1.5,NNE,4.6,-,0.01,,Overcast,20,2011-11-22 11:53:00
7:53 AM,46.0,45.0,96,30.27,1.0,North,4.6,-,0.00,Rain,Light Rain,360,2011-11-22 12:53:00
8:33 AM,46.4,44.6,93,30.26,2.5,NNE,4.6,-,0.01,Rain,Light Rain,30,2011-11-22 13:33:00
8:53 AM,46.9,45.0,93,30.27,3.0,NNE,5.8,-,0.01,,Overcast,20,2011-11-22 13:53:00
9:11 AM,46.4,44.6,93,30.25,2.5,NNE,6.9,-,N/A,,Overcast,30,2011-11-22 14:11:00
9:41 AM,46.4,44.6,93,30.25,1.2,NNE,4.6,-,N/A,,Overcast,20,2011-11-22 14:41:00
9:53 AM,46.9,45.0,93,30.25,1.0,North,4.6,-,N/A,,Overcast,10,2011-11-22 14:53:00
10:53 AM,46.9,46.0,97,30.22,0.8,North,5.8,-,N/A,,Overcast,10,2011-11-22 15:53:00
11:37 AM,48.2,46.4,93,30.19,1.0,NE,4.6,-,0.00,Rain,Light Rain,40,2011-11-22 16:37:00
11:53 AM,48.0,46.0,93,30.18,1.0,NNE,4.6,-,0.04,Rain,Rain,30,2011-11-22 16:53:00
12:13 PM,48.2,46.4,93,30.17,2.5,Calm,Calm,-,0.02,Rain,Light Rain,0,2011-11-22 17:13:00
12:50 PM,48.2,46.4,93,30.14,3.0,North,3.5,-,0.07,Rain,Light Rain,10,2011-11-22 17:50:00
1:06 PM,48.2,46.4,93,30.15,1.8,Calm,Calm,-,0.04,Rain,Heavy Rain,0,2011-11-22 18:06:00
1:24 PM,48.2,46.4,93,30.13,2.0,North,3.5,-,0.09,Rain,Rain,10,2011-11-22 18:24:00
1:39 PM,48.2,46.4,93,30.12,3.0,North,3.5,-,0.12,Rain,Rain,10,2011-11-22 18:39:00
1:45 PM,48.2,46.4,93,30.12,3.0,North,3.5,-,0.13,Rain,Rain,350,2011-11-22 18:45:00
1:53 PM,48.0,46.0,93,30.13,3.0,Calm,Calm,-,0.14,Rain,Light Rain,0,2011-11-22 18:53:00
2:21 PM,48.2,46.4,93,30.11,2.5,North,3.5,-,0.05,Rain,Rain,360,2011-11-22 19:21:00
2:32 PM,48.2,46.4,93,30.09,1.8,NE,5.8,-,0.10,Rain,Heavy Rain,40,2011-11-22 19:32:00
2:43 PM,48.2,46.4,93,30.09,3.0,NNE,4.6,-,0.13,Rain,Rain,30,2011-11-22 19:43:00
2:53 PM,48.0,46.0,93,30.09,5.0,NNE,4.6,-,0.13,Rain,Light Rain,20,2011-11-22 19:53:00
3:03 PM,48.2,46.4,93,30.07,1.8,NE,5.8,-,0.05,Rain,Heavy Rain,40,2011-11-22 20:03:00
3:17 PM,48.2,46.4,93,30.08,2.5,North,3.5,-,0.10,Rain,Rain,360,2011-11-22 20:17:00
3:28 PM,48.2,46.4,93,30.07,1.8,NNE,3.5,-,0.14,Rain,Rain,20,2011-11-22 20:28:00
3:32 PM,48.2,46.4,93,30.08,2.5,North,3.5,-,0.14,Rain,Light Rain,350,2011-11-22 20:32:00
3:40 PM,48.2,46.4,93,30.07,5.0,North,3.5,-,0.15,Rain,Light Rain,360,2011-11-22 20:40:00
3:53 PM,48.0,46.0,93,30.07,4.0,NNE,3.5,-,0.16,Rain,Light Rain,30,2011-11-22 20:53:00
4:05 PM,48.2,46.4,93,30.07,2.0,North,3.5,-,0.03,Rain,Rain,360,2011-11-22 21:05:00
4:18 PM,48.2,46.4,93,30.06,4.0,Calm,Calm,-,0.05,Rain,Rain,0,2011-11-22 21:18:00
4:38 PM,48.2,46.4,93,30.06,2.5,Calm,Calm,-,0.13,Rain,Rain,0,2011-11-22 21:38:00
4:48 PM,48.2,46.4,93,30.05,4.0,North,3.5,-,0.15,Rain,Light Rain,10,2011-11-22 21:48:00
5:16 PM,48.2,46.4,93,30.04,10.0,NNE,4.6,-,0.02,Rain,Light Rain,30,2011-11-22 22:16:00
5:33 PM,48.2,46.4,93,30.03,10.0,North,5.8,-,0.02,,Overcast,10,2011-11-22 22:33:00
5:53 PM,48.0,46.0,93,30.02,6.0,NE,3.5,-,0.02,,Overcast,40,2011-11-22 22:53:00
6:53 PM,48.0,46.0,93,30.00,3.0,Calm,Calm,-,0.00,,Overcast,0,2011-11-22 23:53:00
7:07 PM,48.2,46.4,93,29.98,2.5,Calm,Calm,-,N/A,,Overcast,0,2011-11-23 00:07:00
7:46 PM,48.2,46.4,93,29.97,1.8,Calm,Calm,-,N/A,,Overcast,0,2011-11-23 00:46:00
7:53 PM,48.2,46.4,93,29.96,1.5,Calm,Calm,-,N/A,,Overcast,0,2011-11-23 00:53:00
8:53 PM,48.0,46.0,93,29.94,1.0,NW,4.6,-,0.01,,Mist,320,2011-11-23 01:53:00
9:12 PM,48.2,46.4,93,29.92,2.0,Calm,Calm,-,N/A,,Overcast,0,2011-11-23 02:12:00
9:20 PM,48.2,46.4,93,29.92,1.8,Calm,Calm,-,N/A,,Overcast,0,2011-11-23 02:20:00
9:53 PM,48.0,46.0,93,29.90,1.2,Calm,Calm,-,0.00,Rain,Light Rain,0,2011-11-23 02:53:00
10:53 PM,48.2,46.4,93,29.83,1.0,Calm,Calm,-,N/A,Rain,Light Rain,0,2011-11-23 03:53:00
11:53 PM,48.0,46.9,96,29.80,1.8,Calm,Calm,-,0.05,Rain,Light Rain,0,2011-11-23 04:53:00